Back to catalog

STARLINK-37021

AliveCommunicationsSSO
NORAD 68105·PAYLOAD·🇺🇸 United States

Launched Mar 8, 2026 from Vandenberg Space Force Base

Loading…

Next Passes (next 24 hours)

TLE

FreshSource: CelesTrak SupGP

Epoch: Sep 14, 2026, 15:10 UTC

1 68105C 26044E   26257.63243056 -.00014835  00000+0 -46050-3 0  2574
2 68105  97.2855 216.6194 0002092  90.2607 334.8891 15.33446690    12

Track STARLINK-37021 in real time with AllMySat

Download on the App Store